Regional Weather Roundup
Issued by NWS Green Bay, WI

Home | Current Version | Previous Version | Graphics & Text | Print | Product List | Glossary Off
Versions: 1 2 3 4 5 6 7 8 9 10 11 12 13 14 15 16 17 18 19 20 21 22 23 24 25 26 27 28 29 30 31 32 33 34 35 36 37 38 39 40 41 42 43 44 45 46 47 48 49 50

000
ASUS43 KGRB 220311
RWRGRB

NORTH-CENTRAL AND NORTHEAST WISCONSIN REGIONAL WEATHER ROUNDUP
NATIONAL WEATHER SERVICE GREEN BAY WI
1000 PM CDT SAT OCT 21 2017

WIZ005-009-010>012-018-019-220400-
NORTH CENTRAL WISCONSIN

CITY           SKY/WX    TMP DP  RH WIND       PRES   REMARKS
IRONWOOD       CLOUDY    67  57  70 S13G22    29.74S
MANITOWISH WTR CLOUDY    66  58  77 S12       29.79S
ARBOR VITAE    CLOUDY    67  58  72 S13G18    29.80S
EAGLE RIVER    NOT AVBL
LAND O LAKES   CLOUDY    65  56  70 S7        29.83F
RHINELANDER    MOCLDY    66  58  75 S9        29.83F
PHILLIPS       CLOUDY    66  59  77 S10       29.77S
ANTIGO         CLOUDY    65  56  72 S16       29.86F
TOMAHAWK       PTCLDY    64  56  77 CALM      29.81F
MERRILL        PTCLDY    67  58  73 S9        29.82F
$$

WIZ013-073-220400-
NORTHEAST WISCONSIN

CITY           SKY/WX    TMP DP  RH WIND       PRES   REMARKS
IRON MOUNTAIN  CLOUDY    61  53  75 SE7       29.87F
MARINETTE      CLEAR     66  57  72 S10       29.90F
OCONTO         CLEAR     62  56  80 SE8       29.89F
$$

WIZ017-030-035>037-045-220400-
CENTRAL WISCONSIN

CITY           SKY/WX    TMP DP  RH WIND       PRES   REMARKS
MEDFORD        CLOUDY    64  57  76 S12       29.81R
WAUSAU         PTCLDY    67  56  67 S13G23    29.82S
MOSINEE        PTCLDY    66  57  72 S15G22    29.84F
MARSHFIELD     CLOUDY    66  56  70 S9        29.80F
WISC RAPIDS    CLOUDY    69  58  67 S12       29.84S
STEVENS POINT  CLEAR     67  56  68 S12G17    29.85R
WAUPACA        CLEAR     68  56  65 S10       29.86S
SHAWANO        CLEAR     65  56  73 S6        29.87S
CLINTONVILLE   CLEAR     64  55  72 S7        29.86S
WAUTOMA        CLEAR    N/A N/A N/A S12G21    29.87S
$$

WIZ038-039-048-051-220400-
FOX VALLEY

CITY           SKY/WX    TMP DP  RH WIND       PRES   REMARKS
NWS GREEN BAY  CLEAR     65  58  78 S15       29.89F
APPLETON       PTCLDY    64  54  68 S13       29.88F
OSHKOSH        CLEAR     67  58  72 S14       29.89F
FOND DU LAC    MOCLDY    69  56  62 S12       29.91S
$$

WIZ022-050-052-220400-
EAST CENTRAL WISCONSIN

CITY           SKY/WX    TMP DP  RH WIND       PRES   REMARKS
EPHRAIM        CLOUDY    63  55  75 S17G25    29.93R
WASHINGTON ISL FAIR      57  53  86 S13G20    29.93S
STURGEON BAY   CLOUDY    63  56  78 S22G29    29.92F
MANITOWOC      CLOUDY    61  56  83 S21G29    29.94F
SHEBOYGAN      CLOUDY    62  58  86 S10       29.95F
$$

LMZ563-521-522-541>543-220400-
LAKESHORE

STATION/POSITION TIME  TEMP    WIND        PRES    VSBY  WAVE
                       AIR SEA DIR/SP/G                  HT/PER
                 (UTC) (F)     (DEG/KT/KT) (MB)    (MI)  (FT/S)
SHEBOYGAN LKSHOR 0300   57     180/ 16/ 17 1014.3S
KEWAUNEE LKSHORE 0248   54     180/  9/ 11 1013.3F
NORTHPORT PIER   0240   61     160/ 11/ 19 1013.5S
N MID LAKE BUOY  0250   64 58  170/ 21/ 25 1013.9F         6/ 6
S GREEN BAY BUOY 0300   64 58  160/ 19/ 23 1011.9
SISTER BAY LKSHO 0304   64     210/ 23/ 28   N/A
MENOMINEE LKSHOR 0248   62     160/ 10/ 13 1012.3F
$$




USA.gov is the U.S. government's official web portal to all federal, state and local government web resources and services.